TimeEDT,TemperatureF,Dew PointF,Humidity,Sea Level PressureIn,VisibilityMPH,Wind Direction,Wind SpeedMPH,Gust SpeedMPH,PrecipitationIn,Events,Conditions,WindDirDegrees,DateUTC
12:51 AM,53.1,41.0,64,29.99,10.0,SSW,4.6,-,N/A,,Clear,210,2011-10-26 04:51:00
1:51 AM,53.1,42.1,66,30.00,10.0,South,6.9,-,N/A,,Clear,190,2011-10-26 05:51:00
2:51 AM,55.9,41.0,57,29.99,10.0,South,6.9,-,N/A,,Clear,190,2011-10-26 06:51:00
3:51 AM,55.0,42.1,62,29.97,10.0,SSW,5.8,-,N/A,,Clear,210,2011-10-26 07:51:00
4:51 AM,55.0,42.1,62,29.96,10.0,South,8.1,-,N/A,,Clear,180,2011-10-26 08:51:00
5:51 AM,55.9,43.0,62,29.96,10.0,SSW,8.1,-,N/A,,Clear,200,2011-10-26 09:51:00
6:51 AM,57.0,44.1,62,29.95,10.0,SSW,6.9,-,N/A,,Clear,200,2011-10-26 10:51:00
7:51 AM,57.9,45.0,62,29.94,10.0,SSW,6.9,-,N/A,,Partly Cloudy,200,2011-10-26 11:51:00
8:51 AM,60.1,45.0,57,29.95,10.0,SSW,6.9,-,N/A,,Overcast,200,2011-10-26 12:51:00
9:51 AM,60.8,46.4,59,29.96,10.0,SSW,8.1,-,N/A,,Mostly Cloudy,210,2011-10-26 13:51:00
10:51 AM,62.1,46.0,56,29.94,10.0,SSW,8.1,-,N/A,,Mostly Cloudy,210,2011-10-26 14:51:00
11:51 AM,64.0,48.0,56,29.94,10.0,SSW,5.8,-,0.00,,Mostly Cloudy,210,2011-10-26 15:51:00
12:51 PM,64.9,48.0,54,29.92,10.0,SSW,12.7,21.9,0.00,,Overcast,210,2011-10-26 16:51:00
1:51 PM,64.9,50.0,58,29.88,10.0,South,4.6,-,N/A,,Scattered Clouds,170,2011-10-26 17:51:00
2:51 PM,66.9,50.0,54,29.85,10.0,Variable,6.9,-,0.00,Rain,Light Rain,0,2011-10-26 18:51:00
3:51 PM,64.9,52.0,63,29.86,10.0,SW,5.8,-,0.00,,Overcast,230,2011-10-26 19:51:00
4:45 PM,64.4,51.8,64,29.86,10.0,Calm,Calm,-,N/A,,Mostly Cloudy,0,2011-10-26 20:45:00
4:51 PM,64.9,52.0,63,29.85,10.0,SSW,4.6,-,N/A,,Overcast,210,2011-10-26 20:51:00
5:51 PM,62.1,55.0,78,29.86,9.0,SSW,4.6,-,0.00,Rain,Light Rain,200,2011-10-26 21:51:00
6:51 PM,59.0,57.0,93,29.85,10.0,SSW,4.6,-,0.03,Rain,Light Rain,210,2011-10-26 22:51:00
7:13 PM,59.0,57.2,94,29.88,1.8,South,6.9,-,0.04,Rain,Heavy Rain,190,2011-10-26 23:13:00
7:22 PM,57.2,57.2,100,29.87,3.0,South,5.8,-,0.10,Rain,Rain,180,2011-10-26 23:22:00
7:51 PM,59.0,57.0,93,29.86,10.0,SSW,5.8,-,0.11,,Overcast,200,2011-10-26 23:51:00
8:51 PM,59.0,57.0,93,29.84,10.0,SSW,3.5,-,0.01,,Overcast,200,2011-10-27 00:51:00
9:51 PM,59.0,57.0,93,29.83,9.0,South,5.8,-,0.00,Rain,Light Rain,180,2011-10-27 01:51:00
10:51 PM,59.0,57.0,93,29.81,10.0,SSW,5.8,-,0.00,,Overcast,200,2011-10-27 02:51:00
11:51 PM,59.0,57.0,93,29.80,10.0,SSW,4.6,-,N/A,,Mostly Cloudy,210,2011-10-27 03:51:00